[[{"header":{"parameterUnit":"m.s-1","parameterCategory":1,"la1":30.2991,"la2":30.254,"lo1":-89.0895,"lo2":-89.0444,"dy":0.0017,"dx":0.0017,"nx":28,"ny":28,"refTime":"2023-11-16T03:00:00:Z","depth":0,"parameterNumber":2,"parameterNumberName":"U-component_of_WINDS"},"data":[0,0,0,0,0,0,0,0,0,0,0,0,0,0,0,0,0,0,0,0,0,0,0,0,0,0,0,0,0,0,0,0,0,0,0,0,0,0,0,0,0,0,0,0,0,0,0,0,0,0,0,0,0,0,0,0,0,0,0.4824,0.4823,0,0.4769,0.4769,0.4768,0.4734,0.4734,0.4734,0.4734,0.4677,0.4676,0.4674,0,0,0,0,0,0,0,0,0,0,0,0,0,0.4899,0.4897,0.4824,0.4823,0.4823,0.4769,0.4769,0.4768,0.4734,0.4734,0.4734,0.4734,0.4677,0.4676,0.4674,0,0,0,0,0,0,0,0,0,0,0,0,0,0.4857,0.4897,0.4824,0.48,0.4797,0.477,0.4769,0.4768,0.4734,0.4734,0.4734,0.4734,0.4678,0.4676,0.4674,0.4667,0,0,0.4668,0.4667,0,0,0,0,0,0,0,0,0.486,0.4855,0.4804,0.4801,0.4798,0.4758,0.4774,0.4734,0.4735,0.4758,0.4734,0.4734,0.4704,0.47,0.469,0.4664,0.4661,0.4667,0.4666,0.4665,0.4665,0,0,0,0,0,0,0,0.4863,0.4857,0.4802,0.4803,0.48,0.4791,0.4785,0.4766,0.4733,0.4756,0.4753,0.4748,0.4702,0.4692,0.4689,0.4661,0.4667,0.4666,0.4664,0.4664,0.4626,0.4626,0,0,0,0,0,0,0.487,0.4859,0.4804,0.4801,0.4829,0.479,0.4783,0.4771,0.4733,0.4727,0.4748,0.4746,0.4696,0.4691,0.4686,0.4675,0.4665,0.4663,0.4662,0.4626,0.4626,0.4626,0,0,0,0,0,0,0.4871,0.4865,0.4806,0.4829,0.4821,0.4789,0.4776,0.477,0.476,0.4727,0.4721,0.4743,0.4695,0.4689,0.4672,0.4673,0.4663,0.4661,0.4625,0.4626,0.4626,0.4653,0,0,0,0,0,0,0.4874,0.4866,0.4863,0.483,0.482,0.4793,0.4776,0.477,0.4757,0.4754,0.4721,0.4716,0.4695,0.4675,0.467,0.467,0.4659,0.4625,0.4626,0.4626,0.4652,0.4654,0.4657,0,0,0,0,0,0.4876,0.4872,0.4863,0.4856,0.4816,0.4793,0.4787,0.4764,0.4757,0.4754,0.4733,0.4717,0.4674,0.4674,0.4667,0.4667,0.4625,0.4625,0.4626,0.4651,0.4654,0.4656,0,0,0,0,0,0,0.4906,0.4867,0.4856,0.4842,0.4821,0.4787,0.4782,0.4768,0.4748,0.4746,0.4718,0.471,0.4696,0.468,0.468,0.4658,0.4648,0.4647,0.4669,0.4671,0.4674,0.4677,0.4657,0,0,0,0,0,0.4911,0.4896,0.4863,0.4853,0.4843,0.4815,0.4804,0.4788,0.4765,0.4756,0.4733,0.4711,0.4693,0.4681,0.4663,0.465,0.4642,0.4647,0.4649,0.4651,0.465,0.4643,0.4644,0.4628,0.4628,0.4628,0,0,0.492,0.4897,0.489,0.4858,0.484,0.4825,0.4807,0.4792,0.478,0.4753,0.4735,0.4718,0.4692,0.4677,0.4669,0.4663,0.4653,0.4651,0.4653,0.4652,0.4643,0.4645,0.4646,0.4628,0.4628,0.4628,0,0,0.493,0.4911,0.4901,0.4884,0.4857,0.4838,0.4836,0.4805,0.4792,0.4774,0.4754,0.4739,0.4708,0.4691,0.4678,0.4682,0.4667,0.4677,0.4688,0.4681,0.4682,0.4683,0.4684,0.4685,0.4676,0.4676,0.4677,0,0.4945,0.4921,0.4897,0.4883,0.487,0.4846,0.4835,0.4819,0.4788,0.4779,0.4773,0.4734,0.4714,0.4695,0.4696,0.4687,0.4683,0.468,0.4684,0.4684,0.4685,0.4686,0.4686,0.4678,0.4678,0.4678,0.4677,0,0.4941,0.4926,0.492,0.4891,0.4877,0.4865,0.4839,0.4828,0.4814,0.4796,0.4778,0.4754,0.473,0.4724,0.4709,0.4703,0.47,0.4689,0.4678,0.4688,0.4689,0.4689,0.468,0.4679,0.4679,0.4679,0,0,0.4967,0.4925,0.4924,0.491,0.4879,0.4867,0.4853,0.4831,0.4822,0.4801,0.4789,0.4764,0.4754,0.474,0.4723,0.4717,0.4721,0.4706,0.4705,0.471,0.4713,0.472,0.4721,0.4712,0.4711,0.4711,0.4715,0,0.4971,0.4947,0.4925,0.4908,0.4893,0.487,0.4859,0.4839,0.4822,0.4807,0.4788,0.477,0.4759,0.475,0.4743,0.4722,0.4721,0.4722,0.47,0.4699,0.4706,0.4721,0.4729,0.4733,0.4715,0.4715,0.4715,0,0.4973,0.4954,0.4936,0.4907,0.49,0.489,0.4868,0.4854,0.4831,0.4819,0.4803,0.4786,0.4771,0.4762,0.4741,0.4742,0.4732,0.472,0.472,0.4716,0.4707,0.4717,0.4734,0.4734,0.4715,0.4715,0.4715,0,0.4993,0.4963,0.4948,0.4937,0.4904,0.4897,0.4883,0.486,0.4847,0.4828,0.482,0.4799,0.4787,0.4771,0.4749,0.4745,0.473,0.472,0.472,0.472,0.4717,0.4717,0.4731,0.4712,0.4712,0.4712,0.4712,0,0.5,0.499,0.4957,0.4948,0.4935,0.4911,0.49,0.4883,0.4863,0.485,0.4829,0.4818,0.4789,0.4774,0.4756,0.4742,0.4737,0.4726,0.4722,0.4728,0.4729,0.472,0.4719,0.4712,0.4712,0.4712,0.4712,0,0.502,0.4997,0.498,0.495,0.4942,0.4934,0.4908,0.4898,0.4881,0.4865,0.486,0.4832,0.4814,0.479,0.4764,0.4752,0.4739,0.4732,0.4747,0.4744,0.4745,0.4745,0.4753,0.4753,0.4735,0.4735,0.4735,0,0.5025,0.5017,0.4986,0.4976,0.4963,0.4947,0.4935,0.4911,0.4899,0.4872,0.4866,0.4846,0.4828,0.48,0.4777,0.4757,0.4749,0.4754,0.4746,0.4753,0.4749,0.4749,0.4748,0.4755,0.4756,0.4756,0.4756,0,0.5037,0.5027,0.501,0.499,0.4976,0.4959,0.494,0.4934,0.4906,0.4893,0.4874,0.4861,0.4835,0.4815,0.4792,0.4777,0.4762,0.4759,0.4758,0.4763,0.4772,0.4767,0.4751,0.4758,0.4758,0.4758,0.4758,0.4758,0.505,0.5041,0.5019,0.5001,0.4985,0.4968,0.4958,0.4939,0.4923,0.49,0.4887,0.4868,0.4846,0.4814,0.48,0.4785,0.4779,0.4778,0.4777,0.4777,0.4779,0.4775,0.4781,0.4781,0.478,0.478,0.478,0,0.506,0.5045,0.5029,0.5004,0.4991,0.4978,0.4958,0.4947,0.4931,0.4911,0.4895,0.4873,0.4854,0.4831,0.481,0.4803,0.4795,0.4798,0.4798,0.4795,0.4785,0.4788,0.4805,0.4805,0.4805,0.4805,0.4805,0.4805,0.5064,0.5049,0.5036,0.5014,0.4998,0.498,0.4969,0.4954,0.4938,0.4915,0.49,0.4885,0.4864,0.4842,0.4824,0.4817,0.481,0.4815,0.4807,0.4798,0.4796,0.4794,0.4796,0.4814,0.4814,0.4818,0.4818,0.4818]},{"header":{"parameterUnit":"m.s-1","parameterCategory":1,"la1":30.2991,"la2":30.254,"lo1":-89.0895,"lo2":-89.0444,"dy":0.0017,"dx":0.0017,"nx":28,"ny":28,"refTime":"2023-11-16T03:00:00:Z","depth":0,"parameterNumber":3,"parameterNumberName":"V-component_of_WINDS"},"data":[0,0,0,0,0,0,0,0,0,0,0,0,0,0,0,0,0,0,0,0,0,0,0,0,0,0,0,0,0,0,0,0,0,0,0,0,0,0,0,0,0,0,0,0,0,0,0,0,0,0,0,0,0,0,0,0,0,0,-1.918,-1.9181,0,-1.9346,-1.9348,-1.935,-1.9391,-1.939,-1.9388,-1.9387,-1.956,-1.9565,-1.9571,0,0,0,0,0,0,0,0,0,0,0,0,0,-1.89,-1.8905,-1.9179,-1.9181,-1.9184,-1.9346,-1.9348,-1.935,-1.9391,-1.9389,-1.9388,-1.9387,-1.9558,-1.9565,-1.9571,0,0,0,0,0,0,0,0,0,0,0,0,0,-1.904,-1.8907,-1.9179,-1.9223,-1.9229,-1.9345,-1.9348,-1.9351,-1.9391,-1.9389,-1.9388,-1.9386,-1.9556,-1.9564,-1.9572,-1.9657,0,0,-1.9598,-1.9602,0,0,0,0,0,0,0,0,-1.9032,-1.905,-1.9215,-1.922,-1.9227,-1.9346,-1.9313,-1.9454,-1.9392,-1.933,-1.9387,-1.9385,-1.949,-1.9504,-1.9539,-1.9665,-1.9673,-1.9599,-1.9604,-1.9607,-1.961,0,0,0,0,0,0,0,-1.9022,-1.9043,-1.9245,-1.9217,-1.9225,-1.9236,-1.9254,-1.934,-1.9417,-1.9335,-1.9338,-1.9357,-1.9493,-1.953,-1.9543,-1.9675,-1.9599,-1.9606,-1.9611,-1.9614,-1.9884,-1.9886,0,0,0,0,0,0,-1.9004,-1.9034,-1.924,-1.925,-1.9123,-1.9242,-1.9263,-1.9309,-1.9416,-1.9431,-1.9358,-1.9359,-1.9517,-1.9533,-1.9549,-1.9658,-1.9607,-1.9615,-1.962,-1.9882,-1.9884,-1.9886,0,0,0,0,0,0,-1.8998,-1.9022,-1.9233,-1.9144,-1.9171,-1.9249,-1.9301,-1.9314,-1.9351,-1.9434,-1.9448,-1.9382,-1.9516,-1.9537,-1.9631,-1.9665,-1.9619,-1.9627,-1.9879,-1.9882,-1.9885,-1.9875,0,0,0,0,0,0,-1.899,-1.902,-1.9051,-1.9144,-1.9176,-1.9311,-1.9303,-1.9318,-1.9365,-1.9367,-1.946,-1.9474,-1.9517,-1.9618,-1.9639,-1.9675,-1.9633,-1.9877,-1.9881,-1.9884,-1.9873,-1.9877,-1.9881,0,0,0,0,0,-1.898,-1.9041,-1.9053,-1.9077,-1.9217,-1.9313,-1.9331,-1.9378,-1.9368,-1.9401,-1.9455,-1.9471,-1.9657,-1.9627,-1.9651,-1.9691,-1.9875,-1.9879,-1.9884,-1.9871,-1.9876,-1.9881,0,0,0,0,0,0,-1.8951,-1.9054,-1.9068,-1.9161,-1.9228,-1.9319,-1.9363,-1.9382,-1.9453,-1.9452,-1.9508,-1.9529,-1.9619,-1.9664,-1.9629,-1.978,-1.9766,-1.9776,-1.9748,-1.9754,-1.9758,-1.9746,-1.964,0,0,0,0,0,-1.8955,-1.9023,-1.911,-1.9184,-1.9217,-1.9284,-1.9327,-1.9358,-1.943,-1.9458,-1.9519,-1.9588,-1.9663,-1.9711,-1.9784,-1.9879,-1.9902,-1.9919,-1.9923,-1.9926,-1.9934,-1.9991,-2.0001,-1.9902,-1.9902,-1.9902,0,0,-1.8965,-1.903,-1.9069,-1.918,-1.9235,-1.9306,-1.9307,-1.9381,-1.9435,-1.947,-1.9562,-1.9609,-1.9691,-1.9786,-1.9831,-1.9826,-1.9967,-1.9932,-1.9934,-1.9941,-1.9997,-2.0006,-2.0015,-1.9905,-1.9905,-1.9904,0,0,-1.902,-1.9075,-1.9144,-1.92,-1.9283,-1.9328,-1.9345,-1.9434,-1.9467,-1.956,-1.9589,-1.9654,-1.978,-1.9838,-1.9884,-1.9964,-1.9982,-1.9986,-2.0009,-2.0065,-2.0072,-2.008,-2.011,-2.0121,-1.9994,-1.9994,-1.9994,0,-1.9021,-1.9128,-1.9177,-1.925,-1.93,-1.9335,-1.9406,-1.9458,-1.9562,-1.9596,-1.9589,-1.975,-1.9807,-1.9919,-1.9938,-1.9974,-1.9996,-1.9976,-2.0067,-2.0075,-2.0082,-2.0113,-2.0124,-1.9994,-1.9994,-1.9994,-1.9994,0,-1.9127,-1.9201,-1.9247,-1.9347,-1.9401,-1.9473,-1.9535,-1.9584,-1.9611,-1.9657,-1.9754,-1.9824,-1.9913,-1.9942,-1.9968,-2.0058,-2.0053,-2.0056,-2.0043,-2.0091,-2.012,-2.0132,-1.9994,-1.9994,-1.9994,-1.9994,0,0,-1.9166,-1.9294,-1.9311,-1.9358,-1.9454,-1.9513,-1.9588,-1.9675,-1.9718,-1.9789,-1.9855,-1.9962,-1.9967,-2.0019,-2.0053,-2.0101,-2.0163,-2.0099,-2.0101,-2.011,-2.0269,-2.0267,-2.028,-2.0176,-2.0178,-2.018,-2.0263,0,-1.9234,-1.9369,-1.9416,-1.9528,-1.9598,-1.9634,-1.97,-1.9768,-1.9814,-1.9881,-1.9932,-2.0009,-2.0007,-2.0039,-2.0089,-2.0145,-2.0196,-2.0139,-2.0239,-2.0242,-2.0219,-2.0295,-2.0292,-2.0368,-2.0275,-2.0277,-2.0278,0,-1.933,-1.9404,-1.9522,-1.9613,-1.9644,-1.9702,-1.9788,-1.9852,-1.993,-1.996,-2.002,-2.0051,-2.0134,-2.0115,-2.0231,-2.0191,-2.0236,-2.027,-2.0274,-2.0286,-2.0264,-2.031,-2.0392,-2.0404,-2.0296,-2.0295,-2.0294,0,-1.935,-1.9478,-1.9566,-1.9605,-1.9712,-1.9753,-1.98,-1.9877,-1.9927,-2.0003,-2.0037,-2.012,-2.0167,-2.0232,-2.0286,-2.0267,-2.0398,-2.0383,-2.0427,-2.0426,-2.0453,-2.0451,-2.0545,-2.0479,-2.0479,-2.0478,-2.0478,0,-1.9421,-1.9492,-1.9577,-1.9631,-1.9713,-1.9769,-1.9849,-1.9899,-1.9967,-2.0033,-2.007,-2.0131,-2.0198,-2.0269,-2.0312,-2.0403,-2.0423,-2.0451,-2.0462,-2.0449,-2.0446,-2.0479,-2.0476,-2.0481,-2.0481,-2.048,-2.048,0,-1.9456,-1.9515,-1.9614,-1.9708,-1.9734,-1.9791,-1.9873,-1.9928,-1.9976,-2.006,-2.0083,-2.0159,-2.0245,-2.0305,-2.0415,-2.0444,-2.0543,-2.0552,-2.0516,-2.0522,-2.0563,-2.0559,-2.0683,-2.0704,-2.0622,-2.0623,-2.0623,0,-1.9497,-1.9554,-1.9655,-1.9702,-1.9749,-1.9824,-1.9876,-1.9934,-1.9987,-2.0083,-2.0127,-2.0216,-2.0289,-2.0425,-2.0491,-2.0577,-2.059,-2.0627,-2.0603,-2.0589,-2.0593,-2.0589,-2.0597,-2.0631,-2.0632,-2.0632,-2.0633,0,-1.9566,-1.9593,-1.9667,-1.9752,-1.9814,-1.9883,-1.9954,-1.999,-2.0061,-2.0119,-2.0208,-2.0265,-2.0379,-2.0467,-2.0559,-2.0609,-2.0634,-2.064,-2.0655,-2.0643,-2.062,-2.0635,-2.0528,-2.0637,-2.0636,-2.0636,-2.0636,-2.0636,-1.9607,-1.966,-1.9741,-1.9823,-1.9882,-1.9947,-2.0005,-2.0061,-2.0136,-2.0233,-2.0263,-2.0355,-2.0436,-2.0562,-2.0614,-2.0689,-2.0686,-2.0707,-2.0713,-2.0718,-2.0719,-2.0608,-2.0705,-2.0705,-2.0705,-2.0705,-2.0705,0,-1.968,-1.9734,-1.9809,-1.9906,-1.9972,-1.9989,-2.0068,-2.0122,-2.0203,-2.0276,-2.0348,-2.0452,-2.0538,-2.0612,-2.0703,-2.0748,-2.0762,-2.077,-2.0768,-2.078,-2.0714,-2.0693,-2.0758,-2.0758,-2.0758,-2.0758,-2.0758,-2.0758,-1.9725,-1.9816,-1.9854,-1.9976,-2.003,-2.0121,-2.0165,-2.0227,-2.0286,-2.04,-2.0472,-2.052,-2.0594,-2.0691,-2.0772,-2.0792,-2.0824,-2.083,-2.0853,-2.079,-2.0784,-2.0778,-2.0759,-2.0836,-2.0836,-2.0912,-2.0913,-2.0914]}]]